Weather History for Los Alamitos, CA

Change the Weather History Date:

Wednesday, December 12, 2012

  Actual Average Record
Temperature  
Mean Temperature 58 °F -  
Max Temperature 62 °F 68 °F 87 °F (2010)
Min Temperature 53 °F 49 °F 39 °F (2007)
Degree Days  
Heating Degree Days 8    
Growing Degree Days 8 (Base 50)    
Moisture  
Dew Point 52 °F    
Average Humidity 82    
Maximum Humidity 100    
Minimum Humidity 57    
Precipitation  
Precipitation 0.11 in - - ()
Sea Level Pressure  
Sea Level Pressure 29.91 in    
Wind  
Wind Speed 4 mph (SE)    
Max Wind Speed 13 mph    
Max Gust Speed -    
Visibility 9 miles    
Events Rain    
Averages and records for this station are not official NWS values.
T = Trace of Precipitation, MM = Missing Value Source: NWS Daily Summary

Daily Weather History Graph

Daily Weather History Graph

Search for Another Location

Airport:

Trip Planner

Search our weather history database for the weather conditions in past years. The results will help you decide how hot, cold, wet, or windy it might be!

Date:

Astronomy

Dec. 12, 2012 Rise Set
Actual Time 6:48 AM PST 4:44 PM PST
Civil Twilight 6:20 AM PST 5:12 PM PST
Nautical Twilight 5:49 AM PST 5:43 PM PST
Astronomical Twilight 5:18 AM PST 6:13 PM PST
Moon 5:58 AM PST (12/12) 4:25 PM PST (12/12)
Length of Visible Light 10h 51m
Length of Day
9h 56m
Waning Crescent, 0% of the Moon is Illuminated
Dec 12
Waning Crescent
Dec 13
New
Dec 19
First Quarter
Dec 28
Full
Jan 4
Last Quarter

Hourly Weather History & Observations

Time (PST) Temp. Dew Point Humidity Pressure Visibility Wind Dir Wind Speed Gust Speed Precip Events Conditions
12:58 AM 55.9 °F 55.8 °F 99% 29.98 in 10.0 mi Calm Calm - N/A   Overcast
1:58 AM 55.9 °F 54.0 °F 93% 29.97 in 10.0 mi East 3.5 mph - N/A   Mostly Cloudy
2:58 AM 54.7 °F 54.7 °F 100% 29.96 in 10.0 mi ENE 5.8 mph - N/A   Overcast
3:22 AM 55.4 °F 51.8 °F 88% 29.95 in 10.0 mi East 5.8 mph - N/A   Overcast
3:58 AM 54.7 °F 51.1 °F 88% 29.96 in 10.0 mi ENE 4.6 mph - N/A   Overcast
4:18 AM 55.4 °F 51.8 °F 88% 29.95 in 10.0 mi ENE 5.8 mph - N/A   Overcast
4:58 AM 54.3 °F 50.4 °F 86% 29.96 in 10.0 mi East 6.9 mph - N/A   Mostly Cloudy
5:27 AM 53.6 °F 50.0 °F 88% 29.95 in 10.0 mi ESE 5.8 mph - N/A   Mostly Cloudy
5:58 AM 55.4 °F 50.0 °F 82% 29.96 in 10.0 mi East 8.1 mph - N/A   Overcast
6:03 AM 55.4 °F 50.0 °F 82% 29.95 in 10.0 mi East 8.1 mph - N/A   Overcast
6:58 AM 55.4 °F 48.2 °F 77% 29.97 in 7.0 mi ESE 3.5 mph - N/A   Mostly Cloudy
7:03 AM 55.4 °F 48.2 °F 77% 29.96 in 7.0 mi ESE 4.6 mph - N/A   Mostly Cloudy
7:08 AM 55.4 °F 48.2 °F 77% 29.96 in 7.0 mi East 4.6 mph - N/A   Overcast
7:53 AM 55.4 °F 48.2 °F 77% 29.96 in 7.0 mi East 5.8 mph - N/A   Overcast
7:58 AM 56.3 °F 48.4 °F 75% 29.97 in 7.0 mi East 5.8 mph - N/A   Overcast
8:38 AM 57.2 °F 48.2 °F 72% 29.96 in 7.0 mi East 4.6 mph - N/A   Overcast
8:58 AM 57.4 °F 48.4 °F 72% 29.98 in 7.0 mi ENE 2.3 mph - N/A   Overcast
9:33 AM 59.0 °F 48.2 °F 67% 29.97 in 10.0 mi East 2.3 mph - N/A   Overcast
9:43 AM 59.0 °F 48.2 °F 67% 29.97 in 10.0 mi East 3.5 mph - N/A   Overcast
9:58 AM 58.8 °F 48.2 °F 68% 29.98 in 10.0 mi Calm Calm - N/A   Overcast
10:02 AM 59.0 °F 48.2 °F 67% 29.97 in 10.0 mi Calm Calm - N/A Rain Light Rain
10:11 AM 59.0 °F 48.2 °F 67% 29.96 in 10.0 mi NW 2.3 mph - N/A   Overcast
10:58 AM 59.4 °F 48.6 °F 67% 29.96 in 7.0 mi Calm Calm - 0.00 in   Overcast
11:18 AM 60.8 °F 50.0 °F 68% 29.95 in 10.0 mi WSW 5.8 mph - N/A   Overcast
11:58 AM 62.8 °F 47.1 °F 57% 29.93 in 10.0 mi SSW 6.9 mph - N/A   Overcast
12:58 PM 62.1 °F 47.7 °F 59% 29.91 in 10.0 mi SSW 9.2 mph - N/A   Overcast
1:58 PM 61.7 °F 47.1 °F 59% 29.89 in 10.0 mi SSW 5.8 mph - N/A   Overcast
2:58 PM 61.2 °F 50.2 °F 67% 29.88 in 10.0 mi SSW 4.6 mph - N/A   Overcast
3:58 PM 60.4 °F 50.2 °F 69% 29.88 in 10.0 mi SSW 4.6 mph - N/A   Overcast
4:58 PM 60.1 °F 49.3 °F 67% 29.87 in 10.0 mi Calm Calm - N/A   Overcast
5:58 PM 59.9 °F 51.3 °F 73% 29.87 in 10.0 mi Calm Calm - N/A   Overcast
6:58 PM 59.4 °F 53.6 °F 81% 29.87 in 10.0 mi Variable 1.2 mph - N/A   Overcast
7:46 PM 59.0 °F 53.6 °F 82% 29.86 in 10.0 mi SE 4.6 mph - N/A   Light Drizzle
7:58 PM 59.4 °F 52.9 °F 79% 29.86 in 10.0 mi SE 4.6 mph - 0.00 in   Light Drizzle
8:42 PM 57.2 °F 53.6 °F 88% 29.86 in 10.0 mi SE 4.6 mph - N/A   Overcast
8:58 PM 57.2 °F 53.4 °F 87% 29.87 in 10.0 mi South 2.3 mph - 0.00 in   Overcast
9:58 PM 56.7 °F 55.9 °F 97% 29.86 in 10.0 mi Calm Calm - N/A   Overcast
10:53 PM 57.2 °F 57.2 °F 100% 29.85 in 10.0 mi SSE 3.5 mph - N/A   Overcast
10:56 PM 57.2 °F 57.2 °F 100% 29.85 in 10.0 mi SE 3.5 mph - N/A Rain Light Rain
10:58 PM 57.2 °F 57.2 °F 100% 29.86 in 10.0 mi SE 4.6 mph - N/A Rain Light Rain
11:13 PM 57.2 °F 57.2 °F 100% 29.85 in 7.0 mi WSW 12.7 mph - N/A Rain Light Rain
11:18 PM 57.2 °F 57.2 °F 100% 29.85 in 8.0 mi WSW 9.2 mph - N/A Rain Light Rain
11:28 PM 57.2 °F 57.2 °F 100% 29.85 in 1.8 mi WSW 9.2 mph - N/A Rain Heavy Rain
11:33 PM 57.2 °F 57.2 °F 100% 29.85 in 2.0 mi WSW 5.8 mph - N/A Rain Rain
11:38 PM 57.2 °F 57.2 °F 100% 29.85 in 6.0 mi WSW 6.9 mph - N/A Rain Light Rain
11:48 PM 57.2 °F 57.2 °F 100% 29.85 in 10.0 mi WSW 4.6 mph - N/A   Light Drizzle
11:51 PM 57.2 °F 57.2 °F 100% 29.85 in 10.0 mi WSW 4.6 mph - N/A   Overcast
11:58 PM 56.3 °F 56.3 °F 100% 29.86 in 10.0 mi WSW 4.6 mph - 0.11 in   Overcast